Weather in Ilyichevka

Russia / Omsk Oblast     55°03′00″N   72°01′42″E
temp.,
°C
wind,
m/s
gust,
m/s
humid.,
%
clouds,
%
prec.,
mm/h
press.,
hPa
HPBL,
m
18 april, sun
sun1800:00+4wsw357060 0.0 101974
03:00+3sw48745 0.0 1016125
06:00+2sw41076100 0.0 1015195
09:00+5wsw61363100 0.0 1012487
12:00+10w81355100 0.0 10101693
15:00+10wnw81345100 0.0 10092145
18:00+2nnw11145933 0.4 10141320
21:00−4n10156473 0.0 10201183
19 april, mon
mon1900:00−5n811545 0.0 10231186
03:00−6n795057 0.0 10261180
06:00−8n68495 0.0 10291034
09:00−7n67435 0.0 10301106
12:00−4n67345 0.0 10311490
15:00−3n673076 0.0 10311899
18:00−2n5730100 0.0 10302175
21:00−4n47405 0.0 1032436
20 april, tue
tue2000:00−5nne25475 0.0 1032539
03:00−5n25485 0.0 1032943
06:00−6nnw25550 0.0 1033340
09:00−4nnw34425 0.0 10331115
12:00−1wnw34330 0.0 10321385
15:00+2w56295 0.0 10291532
18:00+3w68325 0.0 10271607
21:00−1wsw4105579 0.0 1026198
21 april, wed
wed2100:00+1wsw71553100 0.0 1024424
03:00+1w61563100 0.0 1022397
06:000nw5118371 0.0 1023459
09:00+2nnw696878 0.0 10241046
12:00+4n795176 0.0 10261423
15:00+5n784680 0.0 10281550
18:00+5nne784586 0.0 10301744
21:00+1nne596536 0.0 1033647
22 april, thu
thu2200:00−1ne37732 0.0 1035293
03:00−1nne37775 0.0 1037290
06:00−2nne36785 0.0 1039251
09:00+1ene45535 0.0 1041876
12:00+4ene34380 0.0 10421358
15:00+5ene33340 0.0 10421518
18:00+6e33338 0.0 10421517
21:00+3ese344860 0.0 104351